Tracking 30922 objects as of 2-Jul-2025
HD Live streaming from Space Station
objects crossing your sky now

DMSP 5D-3 F19 DEB

Track DMSP 5D-3 F19 DEB now!
10-day predictions


NORAD ID: 39632
Int'l Code: 2014-015C
Perigee: 812.1 km
Apogee: 821.7 km
Inclination: 98.7 °
Period: 101.1 minutes
Semi major axis: 7187 km
RCS: Unknown
Launch date: April 3, 2014
Source: United States (US)
Launch site: AIR FORCE WESTERN TEST RANGE (AFWTR)

Note: This is SATELLITE DEBRIS
Your satellite tracking list
Your tracking list is empty




NASA's NSSDC Master Catalog

Two Line Element Set (TLE):
1 39632U 14015C   25182.74955254  .00001158  00000-0  51717-3 0  9992
2 39632  98.6709 193.9852 0006679  70.4301 289.7599 14.24621466581834
Source of the keplerian elements: AFSPC